x

Cape Elizabeth- 45nm Nw Of Aberdeen, Wa (46041) Wave Buoy

4:50 - Mon 23rd Jan 2017 All times are PST. -8 hours from GMT.

  • Sig Wave height 12.5ft
  • Swell Direction
  • Peak Period 11s
  • Average Period 8s
  • Wind
    18mph, 22mph gusts
  • Sea Temp 50°f
  • Luft Temp 47°f
  • Sea Pressure 1003mb
  • Cape Elizabeth- 45nm Nw Of Aberdeen, Wa
  • Cape Elizabeth- 45nm Nw Of Aberdeen, Wa

More Historic Weather Station data

Upgrade to MSW Pro to gain access to the past 30 days of data for over 8000 Wavebouys and Weather Stations around the globe.

Join Pro

Comparision Forecast

View Surf forecast
   
Mo 01/23 4:50 12.5ft 11s 8s 18 22 mph 1003mb 50f 47f
3:50 12ft 10s 8s 18 22 mph 1002.6mb 50f 47f
2:50 13ft 11s 8s 20 25 mph 1001.7mb 50f 47f
1:50 14ft 11s 8s 20 25 mph 1001.1mb 50f 47f
12:50 15ft 12s 9s 22 27 mph 1000.5mb 50f 47f
So 01/22 11:50 14ft 12s 8s 22 29 mph 1000.2mb 50f 47f
10:50 14.5ft 11s 9s 25 29 mph 999.9mb 50f 47f
9:50 14ft 13s 9s 27 31 mph 999.2mb 50f 47f
8:50 14ft 14s 8s 27 31 mph 998.6mb 50f 47f
7:50 15ft 12s 9s 22 29 mph 998.5mb 50f 47f
6:50 17.5ft 14s 9s 22 27 mph 998.2mb 50f 45f
5:50 16.5ft 14s 9s 22 29 mph 997.9mb 50f 45f
4:50 17.5ft 14s 9s 29 36 mph 997.6mb 50f 47f
3:50 18.5ft 14s 9s 29 34 mph 997.3mb 49f 46f
2:50 17.5ft 13s 9s 29 36 mph 996.9mb 49f 46f
1:50 17ft 14s 9s 22 29 mph 996.8mb 49f 43f
12:50 16.5ft 11s 8s 27 34 mph 996.7mb 50f 46f
11:50 14ft 9s 7s 31 43 mph 995.5mb 50f 46f
10:50 12ft 14s 7s 27 36 mph 995.4mb 50f 49f
9:50 10ft 15s 7s 27 36 mph 994.9mb 50f 45f
8:50 10ft 14s 6s 29 36 mph 993.6mb 50f 46f
7:50 11ft 13s 7s 34 43 mph 992.3mb 50f 47f
6:50 11ft 14s 7s 36 45 mph 991.5mb 50f 47f
5:50 11ft 15s 8s 31 40 mph 991.4mb 50f 47f
4:50 12.5ft 15s 8s 29 36 mph 992.5mb 50f 47f
3:50 13ft 14s 9s 27 34 mph 993.2mb 50f 47f
2:50 14ft 16s 9s 29 38 mph 994.4mb 50f 46f
1:50 14ft 16s 9s 29 38 mph 996.2mb 50f 46f
12:50 15ft 16s 10s 25 31 mph 997.5mb 50f 46f
Sa 01/21 11:50 15ft 16s 10s 22 29 mph 998.3mb 50f 46f
10:50 15.5ft 16s 10s 25 34 mph 998.6mb 50f 46f
9:50 16ft 16s 10s 25 29 mph 998.5mb 50f 46f
8:50 15ft 16s 10s 22 29 mph 998.4mb 50f 46f
7:50 16.5ft 16s 11s 20 25 mph 998.4mb 50f 47f
6:50 17ft 15s 11s 20 25 mph 997.8mb 50f 48f
5:50 16.5ft 16s 11s 18 22 mph 997mb 50f 48f
4:50 15.5ft 15s 11s 18 22 mph 996.3mb 50f 49f
3:50 16.5ft 16s 11s 18 20 mph 995.6mb 50f 49f
2:50 18ft 17s 12s 16 22 mph 995mb 50f 49f
1:50 16.5ft 16s 11s 16 20 mph 994.4mb 50f 48f
12:50 15ft 17s 11s 20 25 mph 993.5mb 50f 46f
11:50 18ft 17s 11s 20 27 mph 993.1mb 50f 46f
10:50 18ft 17s 11s 22 31 mph 992.5mb 50f 46f
9:50 18.5ft 16s 11s 22 29 mph 991.7mb 50f 46f
8:50 18ft 19s 11s 22 29 mph 990.9mb 50f 46f
7:50 17.5ft 19s 11s 22 27 mph 990mb 50f 46f
6:50 18.5ft 17s 12s 20 27 mph 989.5mb 50f 46f
5:50 20ft 17s 12s 20 27 mph 989mb 50f 46f
4:50 15.5ft 16s 11s 20 25 mph 988.5mb 50f 46f
3:50 14ft 17s 10s 20 25 mph 988.3mb 50f 46f
2:50 12ft 19s 9s 20 25 mph 988.1mb 50f 47f
1:50 11ft 14s 9s 20 27 mph 987.6mb 50f 47f
12:50 12ft 15s 9s 20 25 mph 987.2mb 50f 47f
Fr 01/20 11:50 11ft 15s 9s 20 25 mph 986.9mb 50f 47f
10:50 11ft 15s 8s 22 27 mph 986.5mb 50f 47f
9:50 10ft 13s 7s 22 27 mph 986.1mb 50f 47f
8:50 11ft 15s 8s 25 29 mph 985.6mb 50f 46f
7:50 11ft 15s 8s 27 31 mph 985.2mb 50f 46f
6:50 11.5ft 15s 8s 27 34 mph 984.7mb 50f 46f
5:50 13ft 16s 8s 27 34 mph 984.2mb 49f 46f
4:50 12.5ft 15s 8s 27 31 mph 984mb 49f 46f
3:50 12.5ft 16s 8s 27 34 mph 983.7mb 50f 47f
2:50 13.5ft 16s 9s 25 31 mph 983.4mb 50f 47f
1:50 12ft 15s 8s 25 31 mph 983.1mb 50f 47f
12:50 12.5ft 15s 9s 27 34 mph 983.2mb 50f 48f
11:50 12.5ft 13s 9s 27 34 mph 983.5mb 50f 48f
10:50 13ft 15s 9s 27 34 mph 983.8mb 50f 47f
9:50 15.5ft 15s 10s 22 29 mph 983.5mb 49f 48f
8:50 15ft 16s 10s 18 25 mph 983.5mb 49f 49f
7:50 14ft 15s 10s 18 25 mph 983.8mb 49f 48f
6:50 14ft 16s 10s 20 27 mph 984.5mb 49f 48f
5:50 15.5ft 16s 10s 18 25 mph 985.4mb 49f 49f
4:50 13ft 16s 9s 22 31 mph 986.5mb 49f 48f
3:50 15ft 16s 9s 25 31 mph 987.9mb 49f 47f
2:50 15ft 16s 9s 27 34 mph 989.4mb 49f 47f
1:50 16.5ft 16s 10s 25 36 mph 990.6mb 49f 47f
12:50 14.5ft 14s 9s 25 31 mph 991.6mb 49f 47f
Do 01/19 11:50 13ft 15s 9s 25 34 mph 992.8mb 49f 46f
10:50 11ft 14s 8s 20 29 mph 993.6mb 50f 46f
9:50 13ft 13s 9s 20 25 mph 994.3mb 49f 48f
8:50 14ft 12s 9s 16 20 mph 995mb 50f 48f
7:50 14ft 13s 9s 18 22 mph 995.3mb 50f 48f
6:50 14ft 13s 9s 13 16 mph 995.9mb 49f 48f
5:50 13ft 11s 9s 11 16 mph 996.4mb 49f 48f
4:50 14.5ft 12s 9s 9 11 mph 996.5mb 49f 48f
3:50 14ft 13s 10s 9 13 mph 996.6mb 49f 47f